TimeCST,TemperatureF,Dew PointF,Humidity,Sea Level PressureIn,VisibilityMPH,Wind Direction,Wind SpeedMPH,Gust SpeedMPH,PrecipitationIn,Events,Conditions,WindDirDegrees,DateUTC
12:09 AM,42.8,39.2,87,29.53,3.0,East,4.6,-,0.02,Rain,Rain,90,2012-12-15 06:09:00
12:56 AM,41.0,39.0,93,29.55,3.0,SE,6.9,-,0.14,Rain,Rain,130,2012-12-15 06:56:00
1:16 AM,41.0,39.2,93,29.51,7.0,ESE,8.1,-,0.03,Rain,Light Rain,120,2012-12-15 07:16:00
1:45 AM,41.0,39.2,93,29.49,2.5,ESE,5.8,-,0.04,Rain,Light Rain,110,2012-12-15 07:45:00
1:56 AM,41.0,39.9,96,29.50,2.5,ESE,5.8,-,0.04,Rain,Light Rain,110,2012-12-15 07:56:00
2:08 AM,41.0,39.2,93,29.48,2.5,ESE,5.8,-,0.01,Rain,Light Rain,110,2012-12-15 08:08:00
2:56 AM,42.1,39.9,92,29.49,3.0,ESE,5.8,-,0.08,Rain,Rain,110,2012-12-15 08:56:00
3:24 AM,42.8,39.2,87,29.46,3.0,ESE,5.8,-,0.05,Rain,Rain,110,2012-12-15 09:24:00
3:56 AM,42.1,39.9,92,29.47,4.0,ESE,5.8,-,0.08,Rain,Light Rain,110,2012-12-15 09:56:00
4:56 AM,41.0,39.9,96,29.45,4.0,ESE,4.6,-,0.06,Rain,Light Rain,110,2012-12-15 10:56:00
5:08 AM,41.0,39.2,93,29.44,4.0,Calm,Calm,-,0.01,Rain,Light Rain,0,2012-12-15 11:08:00
5:56 AM,41.0,39.9,96,29.45,4.0,Calm,Calm,-,0.05,Rain,Light Rain,0,2012-12-15 11:56:00
6:14 AM,41.0,39.2,93,29.44,2.0,North,3.5,-,0.01,Rain,Light Rain,350,2012-12-15 12:14:00
6:21 AM,41.0,39.2,93,29.44,1.8,Calm,Calm,-,0.01,Rain,Light Rain,0,2012-12-15 12:21:00
6:30 AM,41.0,39.2,93,29.44,2.5,NNW,3.5,-,0.02,Rain,Light Rain,340,2012-12-15 12:30:00
6:56 AM,41.0,39.9,96,29.47,3.0,NW,3.5,-,0.03,Rain,Light Rain,310,2012-12-15 12:56:00
7:19 AM,41.0,39.2,93,29.45,2.5,NW,4.6,-,0.01,,Overcast,310,2012-12-15 13:19:00
7:56 AM,41.0,39.9,96,29.49,2.0,WNW,4.6,-,0.01,,Overcast,290,2012-12-15 13:56:00
8:06 AM,41.0,39.2,93,29.47,1.8,WNW,5.8,-,N/A,,Overcast,290,2012-12-15 14:06:00
8:56 AM,41.0,39.0,93,29.51,1.2,NW,12.7,-,N/A,,Overcast,320,2012-12-15 14:56:00
9:06 AM,39.2,37.4,93,29.49,3.0,NW,13.8,-,N/A,,Overcast,320,2012-12-15 15:06:00
9:46 AM,37.4,35.6,93,29.51,2.0,NW,16.1,-,N/A,,Overcast,310,2012-12-15 15:46:00
9:56 AM,37.9,36.0,93,29.55,2.5,NW,20.7,-,N/A,,Overcast,320,2012-12-15 15:56:00
10:23 AM,37.4,35.6,93,29.54,1.8,NW,15.0,-,N/A,,Overcast,310,2012-12-15 16:23:00
10:39 AM,35.6,33.8,93,29.55,2.0,WNW,17.3,25.3,N/A,,Overcast,300,2012-12-15 16:39:00
10:56 AM,36.0,34.0,93,29.58,3.0,NW,15.0,26.5,N/A,,Overcast,310,2012-12-15 16:56:00
11:31 AM,35.6,33.8,93,29.56,4.0,NW,18.4,24.2,N/A,,Overcast,310,2012-12-15 17:31:00
11:56 AM,35.1,33.1,92,29.58,4.0,NW,16.1,25.3,N/A,,Overcast,310,2012-12-15 17:56:00
12:12 PM,35.6,33.8,93,29.55,2.0,NW,16.1,-,N/A,,Overcast,320,2012-12-15 18:12:00
12:24 PM,35.6,33.8,93,29.54,1.8,NW,19.6,-,0.00,Rain,Light Rain,320,2012-12-15 18:24:00
12:32 PM,35.6,33.8,93,29.55,2.5,NW,16.1,23.0,0.00,,Overcast,310,2012-12-15 18:32:00
12:54 PM,35.6,33.8,93,29.55,3.0,NW,12.7,-,0.00,,Overcast,310,2012-12-15 18:54:00
12:56 PM,36.0,34.0,93,29.57,4.0,NW,12.7,-,0.00,,Overcast,310,2012-12-15 18:56:00
1:56 PM,36.0,33.1,89,29.58,4.0,NW,16.1,-,N/A,,Overcast,310,2012-12-15 19:56:00
2:56 PM,34.0,30.9,89,29.59,4.0,NW,16.1,20.7,N/A,,Overcast,320,2012-12-15 20:56:00
3:56 PM,33.1,30.0,89,29.66,4.0,WNW,10.4,-,N/A,,Overcast,300,2012-12-15 21:56:00
4:37 PM,33.8,30.2,87,29.66,4.0,West,12.7,-,N/A,,Overcast,280,2012-12-15 22:37:00
4:56 PM,33.1,30.0,89,29.72,6.0,West,11.5,-,N/A,,Overcast,280,2012-12-15 22:56:00
5:29 PM,33.8,30.2,87,29.69,6.0,WNW,12.7,-,N/A,,Overcast,290,2012-12-15 23:29:00
5:54 PM,33.8,28.4,81,29.69,6.0,WNW,12.7,-,N/A,,Mostly Cloudy,300,2012-12-15 23:54:00
6:46 PM,33.8,28.4,81,29.68,7.0,NW,12.7,21.9,N/A,,Mostly Cloudy,310,2012-12-16 00:46:00
6:56 PM,33.1,28.0,82,29.72,7.0,NW,16.1,-,N/A,,Overcast,310,2012-12-16 00:56:00
7:56 PM,32.0,28.0,85,29.73,7.0,NW,12.7,-,N/A,,Overcast,310,2012-12-16 01:56:00
8:41 PM,30.2,26.6,86,29.68,5.0,NW,21.9,26.5,N/A,,Overcast,320,2012-12-16 02:41:00
8:56 PM,30.9,28.0,89,29.73,4.0,NW,18.4,-,N/A,,Overcast,310,2012-12-16 02:56:00
9:56 PM,30.9,27.0,85,29.74,5.0,NW,15.0,-,N/A,,Overcast,320,2012-12-16 03:56:00
10:45 PM,28.4,24.8,86,29.70,8.0,NNW,16.1,-,N/A,,Overcast,330,2012-12-16 04:45:00
10:56 PM,28.9,25.0,85,29.75,7.0,NNW,12.7,-,N/A,,Overcast,330,2012-12-16 04:56:00
11:14 PM,28.4,23.0,80,29.71,9.0,NW,11.5,-,N/A,,Scattered Clouds,310,2012-12-16 05:14:00